Flag for U.S.A. Weather past 2 weeks in Fayetteville, North Carolina, U.S.A.

Now
60 °F

Fog.


Feels Like: 60 °F
Forecast: 62 / 80 °F
Wind: No wind

Location: Fayetteville Regional Airport

Current Time: Sep 30, 2014 at 8:49:15 AM

Latest Report: Sep 30, 2014 at 7:53 AM


Visibility: 0 mi

Pressure: 29.90 "Hg

Humidity: 96%

Dew point: 59 °F

Location of FayettevilleLocation

Historic Weather in Fayetteville — Graph

°F

Fayetteville temperature yesterday

Maximum temperature yesterday: 70 °F (at 1:53 PM)
Minimum temperature yesterday: 64 °F (at 1:53 AM)
Average temperature yesterday: 66 °F

Past Weeks' High & Low Weather Summary

 TemperatureHumidityPressure
High88 °F (Sep 21, 3:53 PM)100% (Sep 30, 3:02 AM)30.26 "Hg (Sep 30, 3:02 AM)
Low57 °F (Sep 23, 9:53 PM)39% (Sep 22, 2:53 PM)29.79 "Hg (Sep 21, 3:53 PM)
Average69 °F81%30.06 "Hg
* Reported Sep 15 7:53 AM — Sep 30 7:04 AM, Fayetteville, Weather by CustomWeather, © 2014

Note: Actual official high and low records may vary slightly from our data, if they occured in-between our weather recording intervals... More about our weather records

Advertising

Fayetteville weather history for previous 24 hours

 ConditionsComfort  
Time TempWeatherWind HumidityBarometerVisibility
7:04 AM
Sep 30
59 °FFog.No wind96%29.91 "Hg0 mi
6:53 AM59 °FFog.No wind96%29.90 "Hg1 mi
5:53 AM59 °FFog.No wind96%29.89 "Hg0 mi
5:03 AM60 °FFog.No wind96%29.90 "Hg1 mi
4:53 AM61 °FFog.No wind97%29.89 "Hg2 mi
3:53 AM61 °FFog.No wind97%29.90 "Hg1 mi
3:02 AM60 °FFog.3 mph100%29.91 "Hg1 mi
2:53 AM61 °FFog.No wind97%29.90 "Hg2 mi
1:53 AM63 °FFog.No wind93%29.91 "Hg4 mi
12:53 AM63 °FFog.6 mph97%29.92 "Hg6 mi
11:53 PM
Sep 29
64 °FFog.No wind97%29.94 "Hg6 mi
10:53 PM64 °FClear.No wind97%29.95 "Hg7 mi
9:53 PM65 °FPassing clouds.No wind94%29.96 "Hg9 mi
8:53 PM66 °FOvercast.No wind90%29.96 "Hg10 mi
7:53 PM66 °FPartly sunny.5 mph93%29.96 "Hg8 mi
6:53 PM67 °FPartly sunny.No wind90%29.94 "Hg9 mi
5:53 PM67 °FLight rain. Partly sunny.3 mph93%29.95 "Hg7 mi
4:53 PM69 °FLight rain. Fog.8 mph93%29.95 "Hg5 mi
3:53 PM69 °FLight rain. Fog.3 mph93%29.96 "Hg5 mi
2:53 PM70 °FLight rain. Fog.5 mph87%29.97 "Hg6 mi
1:53 PM70 °FPartly sunny.3 mph87%29.98 "Hg7 mi
12:53 PM69 °FFog.6 mph87%29.99 "Hg6 mi
11:53 AM68 °FLight rain. Fog.3 mph87%30.01 "Hg6 mi
10:53 AM67 °FFog.3 mph90%30.01 "Hg6 mi
9:53 AM67 °FPartly sunny.6 mph87%30.00 "Hg7 mi
8:53 AM66 °FFog.5 mph90%30.01 "Hg6 mi
Weather by CustomWeather, © 2014

See weather overviewHow to use our weather pages